Mobridge, SD

6:49 PM CDT on March 25, 2017 (GMT -0500)
Mobridge Municipal

Weather History for KMBG - December, 2011

Change the Weather History Date:

Tuesday, December 6, 2011

  Actual Average Record
Temperature  
Mean Temperature 16 °F 21 °F  
Max Temperature 29 °F 32 °F 70 °F (1939)
Min Temperature 2 °F 10 °F -24 °F (1950)
Degree Days  
Heating Degree Days 49 44  
Month to date heating degree days 282 258  
Since 1 July heating degree days 1848 2024  
Cooling Degree Days 0 0  
Month to date cooling degree days 0 0  
Year to date cooling degree days 684 644  
Moisture  
Dew Point 9 °F    
Average Humidity 79    
Maximum Humidity 92    
Minimum Humidity 65    
Precipitation  
Precipitation T in 0.01 in 0.59 in (1951)
Month to date precipitation 0.09 0.05  
Year to date precipitation 18.96 17.48  
Snow  
Snow 0.00 in - - ()
Month to date snowfall 1.2  
Since 1 July snowfall 1.6  
Snow Depth -    
Sea Level Pressure  
Sea Level Pressure 30.11 in    
Wind  
Wind Speed 10 mph (South)    
Max Wind Speed 17 mph    
Max Gust Speed 21 mph    
Visibility 8 miles    
Events Snow    
T = Trace of Precipitation, MM = Missing Value Source: NWS Daily Summary

Daily Weather History Graph

Daily Weather History Graph

Search for Another Location

Airport or City:

Trip Planner

Search our weather history database for the weather conditions in past years. The results will help you decide how hot, cold, wet, or windy it might be!

Date:

Astronomy

Dec. 06, 2011 Rise Set
Actual Time 8:06 AM CST 4:58 PM CST
Civil Twilight 7:32 AM CST 5:32 PM CST
Nautical Twilight 6:55 AM CST 6:09 PM CST
Astronomical Twilight 6:19 AM CST 6:45 PM CST
Moon 2:32 PM CST (12/6) 4:20 AM CST (12/6)
Length of Visible Light 9h 59m
Length of Day
8h 51m
Waxing Gibbous, 87% of the Moon is Illuminated
Dec 6
Waxing Gibbous
Dec 10
Full
Dec 17
Last Quarter
Dec 24
New
Jan 1
First Quarter

Hourly Weather History & Observations

Time (CST) Temp. Windchill Dew Point Humidity Pressure Visibility Wind Dir Wind Speed Gust Speed Precip Events Conditions
12:52 AM 10.0 °F -1.9 °F 8.1 °F 92% 30.40 in 9.0 mi South 8.1 mph - 0.00 in   Overcast
1:52 AM 10.0 °F -5.2 °F 7.0 °F 87% 30.37 in 10.0 mi South 12.7 mph - N/A   Scattered Clouds
2:52 AM 7.0 °F -6.6 °F 5.0 °F 92% 30.35 in 10.0 mi South 9.2 mph - N/A   Clear
3:52 AM 5.0 °F -9.1 °F 1.9 °F 87% 30.34 in 10.0 mi SSE 9.2 mph - N/A   Clear
4:30 AM 3.2 °F -11.3 °F 1.4 °F 92% 30.19 in 10.0 mi SSE 9.2 mph - N/A   Scattered Clouds
4:39 AM 8.6 °F -6.3 °F 6.8 °F 92% 30.19 in 9.0 mi SSE 11.5 mph - N/A   Mostly Cloudy
4:52 AM 8.1 °F -5.3 °F 7.0 °F 95% 30.30 in 7.0 mi South 9.2 mph - N/A   Overcast
5:52 AM 10.0 °F -5.9 °F 8.1 °F 92% 30.29 in 7.0 mi South 13.8 mph - N/A   Overcast
6:52 AM 8.1 °F -7.0 °F 5.0 °F 87% 30.25 in 6.0 mi South 11.5 mph - 0.00 in   Mostly Cloudy
7:52 AM 6.1 °F -10.9 °F 3.0 °F 87% 30.23 in 5.0 mi South 13.8 mph - N/A   Mostly Cloudy
8:28 AM 6.8 °F -10.0 °F 3.2 °F 85% 30.08 in 1.8 mi South 13.8 mph - 0.00 in Snow Light Snow
8:50 AM 6.8 °F -9.3 °F 5.0 °F 92% 30.07 in 2.0 mi South 12.7 mph - 0.00 in Snow Light Snow
8:52 AM 7.0 °F -10.4 °F 5.0 °F 92% 30.19 in 2.0 mi South 15.0 mph - 0.00 in Snow Light Snow
9:18 AM 8.6 °F -6.3 °F 6.8 °F 92% 30.05 in 4.0 mi South 11.5 mph - 0.00 in Snow Light Snow
9:38 AM 10.4 °F -4.1 °F 6.8 °F 85% 30.05 in 2.5 mi South 11.5 mph - 0.00 in Snow Light Snow
9:49 AM 10.4 °F -4.8 °F 6.8 °F 85% 30.04 in 4.0 mi SSE 12.7 mph - 0.00 in Snow Light Snow
9:52 AM 10.0 °F -4.5 °F 7.0 °F 87% 30.16 in 5.0 mi South 11.5 mph - 0.00 in   Mostly Cloudy
10:09 AM 10.4 °F -4.1 °F 8.6 °F 92% 30.04 in 10.0 mi South 11.5 mph - N/A   Scattered Clouds
10:52 AM 12.9 °F -0.2 °F 9.0 °F 84% 30.12 in 10.0 mi South 10.4 mph - N/A   Clear
11:52 AM 12.9 °F -0.9 °F 9.0 °F 84% 30.11 in 10.0 mi South 11.5 mph - N/A   Clear
12:52 PM 17.1 °F 4.3 °F 10.9 °F 77% 30.05 in 10.0 mi South 11.5 mph - N/A   Clear
1:52 PM 19.9 °F 7.9 °F 10.9 °F 68% 30.01 in 10.0 mi South 11.5 mph - N/A   Clear
2:52 PM 21.9 °F 10.4 °F 12.0 °F 66% 29.99 in 10.0 mi South 11.5 mph - N/A   Overcast
3:52 PM 23.0 °F 10.6 °F 12.0 °F 63% 29.97 in 10.0 mi South 13.8 mph - N/A   Overcast
4:52 PM 21.9 °F 10.4 °F 12.0 °F 66% 29.96 in 10.0 mi South 11.5 mph - N/A   Clear
5:52 PM 21.0 °F 11.4 °F 12.9 °F 71% 29.95 in 10.0 mi South 8.1 mph - N/A   Clear
6:52 PM 19.0 °F 10.0 °F 12.9 °F 77% 29.94 in 10.0 mi South 6.9 mph - N/A   Clear
7:52 PM 19.0 °F 13.9 °F 10.9 °F 71% 29.94 in 10.0 mi South 3.5 mph - N/A   Clear
8:52 PM 21.9 °F 17.2 °F 12.9 °F 68% 29.93 in 10.0 mi West 3.5 mph - N/A   Clear
9:52 PM 23.0 °F 18.4 °F 16.0 °F 74% 29.93 in 10.0 mi NW 3.5 mph - N/A   Clear
10:52 PM 24.1 °F 16.0 °F 17.1 °F 75% 29.94 in 10.0 mi North 6.9 mph - N/A   Partly Cloudy
11:52 PM 28.0 °F 19.3 °F 21.0 °F 75% 29.96 in 10.0 mi NNW 9.2 mph - N/A   Overcast